Flag for South Africa Weather past 2 weeks in Bloemfontein, South Africa

Now
34 °F

Clear.


Feels Like: 31 °F
Forecast: 31 / 52 °F
Wind: 3 mph from Southwest

Location: Bloemfontein Airport

Current Time: Aug 28, 2014 at 5:38:06 AM

Latest Report: Aug 28, 2014 at 5:00 AM


Visibility: 10 mi

Pressure: 30.04 "Hg

Humidity: 44%

Dew point: 14 °F

Location of BloemfonteinLocation

Historic Weather in Bloemfontein — Graph

°F

Bloemfontein temperature yesterday

Maximum temperature yesterday: 79 °F (at 2:00 PM)
Minimum temperature yesterday: 36 °F (at 2:00 AM)
Average temperature yesterday: 56 °F

Past Weeks' High & Low Weather Summary

 TemperatureHumidityPressure
High79 °F (Aug 27, 2:00 PM)88% (Aug 19, 7:00 AM)30.54 "Hg (Aug 19, 7:00 AM)
Low23 °F (Aug 23, 7:00 AM)4% (Aug 26, 5:00 PM)29.95 "Hg (Aug 27, 3:00 PM)
Average53 °F47%30.20 "Hg
* Reported Aug 13 4:00 AM — Aug 28 4:00 AM, Bloemfontein, Weather by CustomWeather, © 2014

Note: Actual official high and low records may vary slightly from our data, if they occured in-between our weather recording intervals... More about our weather records

Advertising

Bloemfontein weather history for previous 24 hours

 ConditionsComfort  
Time TempWeatherWind HumidityBarometerVisibility
4:00 AM
Aug 28
34 °FChilly.1 mph41%29.98 "HgN/A
3:00 AM37 °FChilly.2 mph41%30.01 "HgN/A
2:00 AM37 °FChilly.5 mph38%30.01 "HgN/A
1:00 AM43 °FQuite cool.5 mph34%30.01 "HgN/A
12:00 AM43 °FQuite cool.1 mph31%30.01 "HgN/A
11:00 PM
Aug 27
48 °FCool.3 mph27%30.01 "HgN/A
10:00 PM50 °FCool.3 mph28%30.01 "HgN/A
9:00 PM57 °FRefreshingly cool.2 mph18%30.01 "HgN/A
8:00 PM57 °FClear.1 mph14%30.04 "Hg10 mi
7:00 PM66 °FClear.7 mph15%29.98 "Hg10 mi
6:00 PM73 °FClear.15 mph12%29.95 "Hg10 mi
5:00 PM75 °FClear.13 mph9%29.98 "Hg10 mi
4:00 PM77 °FSunny.23 mph13%29.95 "Hg10 mi
3:00 PM77 °FSunny.26 mph12%29.95 "Hg10 mi
2:00 PM79 °FLow level haze.18 mph8%30.01 "Hg5 mi
1:00 PM77 °FSunny.29 mph11%30.01 "Hg10 mi
12:00 PM77 °FPassing clouds.22 mph14%30.07 "HgN/A
11:00 AM72 °FSunny.17 mph12%30.12 "Hg10 mi
10:00 AM64 °FSunny.21 mph21%30.09 "Hg10 mi
9:00 AM59 °FSunny.15 mph23%30.12 "Hg10 mi
8:00 AM48 °FSunny.1 mph25%30.15 "Hg10 mi
7:50 AM48 °FSunny.2 mph29%30.09 "Hg10 mi
7:00 AM36 °FSunny.2 mph38%30.09 "Hg10 mi
6:00 AM37 °FSunny.2 mph33%30.09 "Hg10 mi
5:00 AM39 °FClear.No wind28%30.12 "Hg10 mi
Weather by CustomWeather, © 2014

See weather overviewHow to use our weather pages